TimeCDT,TemperatureF,Dew PointF,Humidity,Sea Level PressureIn,VisibilityMPH,Wind Direction,Wind SpeedMPH,Gust SpeedMPH,PrecipitationIn,Events,Conditions,WindDirDegrees,DateUTC
12:52 AM,57.9,43.0,58,29.85,10.0,South,16.1,-,N/A,,Clear,180,2013-05-14 05:52:00
1:52 AM,57.9,44.1,60,29.82,10.0,South,15.0,-,N/A,,Clear,180,2013-05-14 06:52:00
2:52 AM,57.0,45.0,64,29.79,10.0,South,17.3,-,N/A,,Clear,180,2013-05-14 07:52:00
3:52 AM,57.0,46.9,69,29.78,10.0,South,9.2,-,N/A,,Clear,180,2013-05-14 08:52:00
4:52 AM,55.9,48.9,77,29.77,10.0,SSW,8.1,-,N/A,,Clear,210,2013-05-14 09:52:00
5:52 AM,57.9,50.0,75,29.77,10.0,SSW,10.4,17.3,N/A,,Clear,200,2013-05-14 10:52:00
6:52 AM,59.0,52.0,78,29.78,10.0,SSW,8.1,-,N/A,,Clear,210,2013-05-14 11:52:00
7:52 AM,62.1,53.1,72,29.77,10.0,SW,9.2,-,N/A,,Clear,230,2013-05-14 12:52:00
8:52 AM,68.0,55.9,65,29.77,10.0,WSW,9.2,-,N/A,,Clear,250,2013-05-14 13:52:00
9:52 AM,73.0,57.0,57,29.76,10.0,WSW,8.1,-,N/A,,Clear,250,2013-05-14 14:52:00
10:52 AM,77.0,59.0,54,29.76,10.0,SW,8.1,-,N/A,,Clear,230,2013-05-14 15:52:00
11:52 AM,84.0,61.0,46,29.73,10.0,South,8.1,-,N/A,,Clear,170,2013-05-14 16:52:00
12:52 PM,86.0,57.9,38,29.72,10.0,South,12.7,-,N/A,,Clear,180,2013-05-14 17:52:00
1:52 PM,89.1,55.9,32,29.69,10.0,South,12.7,21.9,N/A,,Clear,170,2013-05-14 18:52:00
2:52 PM,93.0,53.1,26,29.66,10.0,South,21.9,26.5,N/A,,Clear,190,2013-05-14 19:52:00
3:52 PM,93.0,55.9,29,29.64,10.0,South,21.9,27.6,N/A,,Clear,190,2013-05-14 20:52:00
4:52 PM,91.9,60.1,34,29.61,10.0,SSW,21.9,29.9,N/A,,Clear,200,2013-05-14 21:52:00
5:52 PM,91.0,60.1,35,29.59,10.0,SSW,18.4,27.6,N/A,,Clear,210,2013-05-14 22:52:00
6:52 PM,88.0,57.0,35,29.57,10.0,SSW,23.0,28.8,N/A,,Clear,210,2013-05-14 23:52:00
7:52 PM,84.0,57.9,41,29.60,10.0,SW,17.3,24.2,N/A,,Clear,220,2013-05-15 00:52:00
8:52 PM,81.0,57.0,44,29.59,10.0,SSW,13.8,-,N/A,,Clear,210,2013-05-15 01:52:00
9:52 PM,79.0,55.9,45,29.61,10.0,SSW,13.8,-,N/A,,Clear,210,2013-05-15 02:52:00
10:52 PM,78.1,54.0,43,29.61,10.0,SW,17.3,25.3,N/A,,Clear,220,2013-05-15 03:52:00
11:52 PM,78.1,52.0,40,29.63,10.0,SW,21.9,27.6,N/A,,Clear,230,2013-05-15 04:52:00